• In Belarus
  • List of Countries
  • For 7 days
  • Water Temperature
  • Weather Map
  • Weather Widgets
  • user-avatar
    Login

    Hourly Weather Tyrgowishte

    Today, 25 August, Sunday

    Time Temperature Precipitation Wind Pressure Humidity
    00:00 +23°C° 0 mm 1 mps 746 mmHg 64%
    01:00 +23°C° 0 mm 1 mps 746 mmHg 65%
    02:00 +23°C° 0 mm 1 mps 746 mmHg 66%
    03:00 +22°C° 0 mm 1 mps 746 mmHg 68%
    04:00 +22°C° 0 mm 1 mps 746 mmHg 70%
    05:00 +21°C° 0 mm 1 mps 746 mmHg 72%
    06:00 +23°C° 0 mm 1 mps 746 mmHg 63%
    07:00 +26°C° 0 mm 2 mps 746 mmHg 55%
    08:00 +28°C° 0 mm 2 mps 747 mmHg 47%
    09:00 +30°C° 0 mm 3 mps 747 mmHg 41%
    10:00 +34°C° 0 mm 4 mps 747 mmHg 35%
    11:00 +36°C° 0 mm 5 mps 746 mmHg 29%
    12:00 +37°C° 0 mm 4 mps 746 mmHg 26%
    13:00 +38°C° 0 mm 4 mps 746 mmHg 23%
    14:00 +40°C° 0 mm 4 mps 746 mmHg 20%
    15:00 +38°C° 0 mm 4 mps 745 mmHg 22%
    16:00 +37°C° 0 mm 4 mps 745 mmHg 24%
    17:00 +36°C° 0 mm 4 mps 745 mmHg 26%
    18:00 +33°C° 0 mm 4 mps 745 mmHg 35%
    19:00 +30°C° 0 mm 4 mps 745 mmHg 44%
    20:00 +27°C° 0 mm 3 mps 746 mmHg 53%
    21:00 +25°C° 0 mm 3 mps 746 mmHg 61%
    22:00 +24°C° 0 mm 2 mps 746 mmHg 69%
    23:00 +23°C° 0 mm 1 mps 746 mmHg 78%

    Tomorrow, 26 August, Monday

    Time Temperature Precipitation Wind Pressure Humidity
    00:00 +22°C° 0 mm 1 mps 746 mmHg 80%
    01:00 +22°C° 0 mm 1 mps 746 mmHg 82%
    02:00 +21°C° 0 mm 1 mps 746 mmHg 85%
    03:00 +21°C° 0 mm 1 mps 746 mmHg 87%
    04:00 +21°C° 0 mm 1 mps 746 mmHg 88%
    05:00 +21°C° 0 mm 1 mps 746 mmHg 90%
    06:00 +23°C° 0 mm 1 mps 746 mmHg 80%
    07:00 +25°C° 0 mm 2 mps 747 mmHg 69%
    08:00 +27°C° 0 mm 2 mps 747 mmHg 59%
    09:00 +30°C° 0 mm 3 mps 747 mmHg 49%
    10:00 +33°C° 0 mm 3 mps 747 mmHg 40%
    11:00 +36°C° 0 mm 4 mps 747 mmHg 30%
    12:00 +35°C° 0.1 mm 4 mps 747 mmHg 31%
    13:00 +34°C° 0.1 mm 4 mps 747 mmHg 33%
    14:00 +34°C° 0.1 mm 4 mps 746 mmHg 34%
    15:00 +33°C° 0.1 mm 4 mps 746 mmHg 36%
    16:00 +33°C° 0.1 mm 3 mps 746 mmHg 37%
    17:00 +31°C° 0.1 mm 3 mps 746 mmHg 39%
    18:00 +29°C° 0 mm 3 mps 746 mmHg 43%
    19:00 +27°C° 0 mm 3 mps 746 mmHg 48%
    20:00 +25°C° 0 mm 2 mps 746 mmHg 52%
    21:00 +24°C° 0 mm 2 mps 746 mmHg 60%
    22:00 +23°C° 0 mm 1 mps 747 mmHg 68%
    23:00 +21°C° 0 mm 1 mps 747 mmHg 77%

    Day after tomorrow, 27 August, Tuesday

    Time Temperature Precipitation Wind Pressure Humidity
    00:00 +21°C° 0 mm 1 mps 747 mmHg 79%
    01:00 +21°C° 0 mm 1 mps 746 mmHg 82%
    02:00 +18°C° 0 mm 0 mps 746 mmHg 85%
    03:00 +18°C° 0 mm 0 mps 746 mmHg 86%
    04:00 +18°C° 0 mm 0 mps 746 mmHg 86%
    05:00 +17°C° 0 mm 0 mps 746 mmHg 86%
    06:00 +22°C° 0 mm 1 mps 747 mmHg 77%
    07:00 +24°C° 0 mm 1 mps 747 mmHg 68%
    08:00 +26°C° 0 mm 1 mps 747 mmHg 59%
    09:00 +28°C° 0 mm 2 mps 747 mmHg 50%
    10:00 +30°C° 0 mm 3 mps 747 mmHg 42%
    11:00 +33°C° 0 mm 3 mps 747 mmHg 33%
    12:00 +34°C° 0 mm 3 mps 747 mmHg 30%
    13:00 +35°C° 0 mm 4 mps 747 mmHg 27%
    14:00 +36°C° 0 mm 4 mps 746 mmHg 24%
    15:00 +35°C° 0 mm 4 mps 746 mmHg 26%
    16:00 +34°C° 0 mm 5 mps 746 mmHg 28%
    17:00 +33°C° 0 mm 5 mps 746 mmHg 31%
    18:00 +30°C° 0 mm 4 mps 746 mmHg 38%
    19:00 +27°C° 0 mm 4 mps 746 mmHg 46%
    20:00 +24°C° 0 mm 3 mps 746 mmHg 53%
    21:00 +23°C° 0 mm 2 mps 746 mmHg 59%
    22:00 +21°C° 0 mm 2 mps 746 mmHg 64%
    23:00 +21°C° 0 mm 1 mps 747 mmHg 69%

    28 August, Wednesday

    Time Temperature Precipitation Wind Pressure Humidity
    00:00 +20°C° 0 mm 1 mps 747 mmHg 71%
    01:00 +20°C° 0 mm 1 mps 746 mmHg 73%
    02:00 +18°C° 0 mm 0 mps 746 mmHg 74%
    03:00 +19°C° 0 mm 1 mps 746 mmHg 76%
    04:00 +19°C° 0 mm 1 mps 746 mmHg 77%
    05:00 +18°C° 0 mm 1 mps 746 mmHg 79%
    06:00 +21°C° 0 mm 1 mps 746 mmHg 69%
    07:00 +23°C° 0 mm 1 mps 747 mmHg 59%
    08:00 +25°C° 0 mm 2 mps 747 mmHg 49%
    09:00 +28°C° 0 mm 3 mps 747 mmHg 40%
    10:00 +30°C° 0 mm 4 mps 747 mmHg 32%
    11:00 +33°C° 0 mm 5 mps 747 mmHg 23%
    12:00 +34°C° 0 mm 5 mps 746 mmHg 21%
    13:00 +35°C° 0 mm 5 mps 746 mmHg 20%
    14:00 +36°C° 0 mm 5 mps 746 mmHg 18%
    15:00 +35°C° 0 mm 5 mps 745 mmHg 19%
    16:00 +35°C° 0 mm 5 mps 745 mmHg 21%
    17:00 +34°C° 0 mm 5 mps 745 mmHg 22%
    18:00 +30°C° 0 mm 5 mps 745 mmHg 30%
    19:00 +26°C° 0 mm 4 mps 745 mmHg 38%
    20:00 +22°C° 0 mm 3 mps 745 mmHg 46%
    21:00 +20°C° 0 mm 2 mps 745 mmHg 51%
    22:00 +19°C° 0 mm 2 mps 745 mmHg 57%
    23:00 +19°C° 0 mm 1 mps 746 mmHg 62%

    29 August, Thursday

    Time Temperature Precipitation Wind Pressure Humidity
    00:00 +19°C° 0 mm 1 mps 745 mmHg 62%
    01:00 +18°C° 0 mm 1 mps 745 mmHg 63%
    02:00 +16°C° 0 mm 0 mps 745 mmHg 64%
    03:00 +16°C° 0 mm 1 mps 745 mmHg 65%
    04:00 +16°C° 0 mm 1 mps 745 mmHg 66%
    05:00 +16°C° 0 mm 1 mps 745 mmHg 67%
    06:00 +19°C° 0 mm 1 mps 745 mmHg 59%
    07:00 +21°C° 0 mm 1 mps 745 mmHg 51%
    08:00 +24°C° 0 mm 1 mps 745 mmHg 43%
    09:00 +26°C° 0 mm 2 mps 746 mmHg 37%
    10:00 +28°C° 0 mm 3 mps 746 mmHg 31%
    11:00 +32°C° 0 mm 4 mps 746 mmHg 25%
    12:00 +32°C° 0 mm 4 mps 745 mmHg 25%
    13:00 +33°C° 0 mm 4 mps 745 mmHg 24%
    14:00 +34°C° 0 mm 5 mps 745 mmHg 24%
    15:00 +33°C° 0 mm 5 mps 744 mmHg 27%
    16:00 +32°C° 0 mm 5 mps 744 mmHg 31%
    17:00 +30°C° 0 mm 5 mps 744 mmHg 34%
    18:00 +28°C° 0 mm 4 mps 744 mmHg 42%
    19:00 +25°C° 0 mm 3 mps 744 mmHg 50%
    20:00 +23°C° 0 mm 2 mps 744 mmHg 57%
    21:00 +21°C° 0 mm 2 mps 745 mmHg 64%
    22:00 +20°C° 0 mm 2 mps 745 mmHg 70%
    23:00 +20°C° 0 mm 1 mps 745 mmHg 76%

    30 August, Friday

    Time Temperature Precipitation Wind Pressure Humidity
    00:00 +19°C° 0 mm 1 mps 745 mmHg 80%
    01:00 +19°C° 0 mm 1 mps 745 mmHg 83%
    02:00 +18°C° 0 mm 1 mps 745 mmHg 87%
    03:00 +18°C° 0 mm 1 mps 745 mmHg 88%
    04:00 +18°C° 0 mm 1 mps 745 mmHg 90%
    05:00 +16°C° 0 mm 1 mps 745 mmHg 92%
    06:00 +19°C° 0 mm 1 mps 745 mmHg 83%
    07:00 +20°C° 0 mm 2 mps 746 mmHg 75%
    08:00 +23°C° 0 mm 2 mps 746 mmHg 66%
    09:00 +25°C° 0 mm 3 mps 746 mmHg 56%
    10:00 +27°C° 0 mm 3 mps 746 mmHg 45%
    11:00 +29°C° 0 mm 4 mps 746 mmHg 35%
    12:00 +30°C° 0 mm 4 mps 746 mmHg 32%
    13:00 +30°C° 0 mm 4 mps 746 mmHg 29%
    14:00 +32°C° 0 mm 4 mps 746 mmHg 26%
    15:00 +32°C° 0 mm 5 mps 746 mmHg 27%
    16:00 +30°C° 0 mm 5 mps 745 mmHg 27%
    17:00 +30°C° 0 mm 5 mps 745 mmHg 27%
    18:00 +27°C° 0 mm 5 mps 745 mmHg 39%
    19:00 +22°C° 0 mm 4 mps 746 mmHg 52%
    20:00 +19°C° 0 mm 3 mps 746 mmHg 64%
    21:00 +18°C° 0 mm 3 mps 746 mmHg 71%
    22:00 +17°C° 0 mm 2 mps 746 mmHg 78%
    23:00 +16°C° 0 mm 1 mps 747 mmHg 85%
    Show more